Weather in Trutnov

Czech Republic     50°33′41″N   15°54′07″E
temp.,
°C
wind,
m/s
gust,
m/s
humid.,
%
clouds,
%
prec.,
mm/h
press.,
hPa
HPBL,
m
20 june, sun
sun2023:00+20ne117056 0.0 101411
02:00+19nne227397 0.0 101412
05:00+18ese117994 0.0 101311
08:00+23se22665 0.0 1012240
11:00+27ssw33542 0.0 1012959
14:00+28ssw32465 0.0 10111629
17:00+28ssw125199 0.0 1010802
20:00+25e116996 0.0 100912
21 june, mon
mon2123:00+20ne22775 0.0 101015
02:00+19ne21825 0.0 100811
05:00+18ene117814 0.0 100711
08:00+23sse266789 0.0 1008486
11:00+26ssw456239 0.0 10081137
14:00+26sse3464100 1.2 10071170
17:00+25s457294 1.4 1007649
20:00+22ne3583100 9.9 100878
22 june, tue
tue2223:00+17nne37954 0.9 1010161
02:00+16nne3393100 0.9 100945
05:00+15nne3893100 0.0 1010162
08:00+18nne4892100 0.8 1011434
11:00+20ne6780100 0.4 1012734
14:00+21ne667699 0.4 1012882
17:00+22ne567582 0.1 1012837
20:00+20nne588475 0.3 1013426
23 june, wed
wed2323:00+17nne4109494 2.9 1014298
02:00+17nne51094100 3.5 1014296
05:00+16ne3797100 1.8 1014175
08:00+18nne4889100 1.9 1016333
11:00+19ne468798 0.4 1017515
14:00+20ne458766 2.4 1017521
17:00+22ene337755 1.2 1017711
20:00+21ne238851 1.5 1017180
24 june, thu
thu2423:00+18nne229477 0.0 101830
02:00+17ne239633 0.0 101759
05:00+16ne379694 0.0 1016176
08:00+19ne4891100 3.1 1016399
11:00+20ne458994 2.6 1015575
14:00+23ne338048 5.5 1015623
17:00+24sw227636 3.7 1014806
20:00+20sw469547 3.8 1012291